STARLINK-11284 [DTC] (61052 NORAD) Tracking and Keplerian Element Data

This shows tracking and keplerian element data for the satellite.

Feedback or suggestion? Click here.




ElementValue
Catalog61052
NameSTARLINK-11284 [DTC]
Epoch Orbit482
Epoch Day286.57000004
Epoch Year2024
RAAN321.0662
Inclination53.1537
Eccentricity5.33E-05
Argument of Perigee38.2143
Mean Anonmoly321.8916
Mean Motion15.76770868
Decay Rate0.00088186
L11 61052U 24164C 24286.57000004 .00088186 00000+0 53623-3 0 9991
L22 61052 53.1537 321.0662 0000533 38.2143 321.8916 15.76770868 4821



Live tracking and technical data element details for STARLINK-11284 [DTC] (NORAD 61052). STARLINK-11284 [DTC] can be tracked NOW for your location showing map with azimuth and elevation plus other details from your city location.







IsCatalogInMostPopularTable: catalog: 61052, numindb: 26
Update: records affected: 1



GetName: 61052 STARLINK-11284 [DTC]

Hit Count: updated at: Fri, 06 Dec 2024 11:51:56 GMT